User: anonymous   Login
Location: *
(43.9900°N, 3.4811°E)
Time: 16:07:13
(UTC+00:00)
Language:

GP-B - Orbit

View from above orbital plane
View from above orbital plane
View from above satellite
View from above satellite

Ground track
Ground track

The orbit data is extracted from the following two-line orbital elements,

1 28230U 04014A   19294.19066653  .00000089  00000-0  99310-5 0  9999
2 28230  89.8162 104.1372 0002567  75.4861 284.6646 14.78698855835586
Epoch (UTC): 21 October 2019 04:34:33
Eccentricity: 0.0002567
inclination: 89.8162°
perigee height: 631 km
apogee height: 635 km
right ascension of ascending node: 104.1372°
argument of perigee: 75.4861°
revolutions per day: 14.78698855
mean anomaly at epoch: 284.6646°
orbit number at epoch: 83558

The dashed part of the orbit path shows where the satellite is in the earth's shadow,  

DLR